QPF
0.02 0.02 0.08 0.10 0.09 0.08 0.08 0.05 0.04 0.03 0.02 0.01 0.01 0.02 0.01 0.01 0.02 0.02 0.02 0.04 0.04 0.05 0.05 0.04 0.03 0.03 0.03 0.04 0.06 0.07 0.12 0.12 0.15 0.11 0.08 0.07 0.07 0.09 0.10 0.11 0.12 0.11 0.07
0.02 0.02 0.05 0.06 0.08 0.08 0.06 0.05 0.04 0.02 0.01 0.01 0.01 0.01 0.02 0.01 0.02 0.02 0.02 0.02 0.03 0.03 0.03 0.02 0.03 0.03 0.03 0.05 0.06 0.07 0.11 0.12 0.16 0.14 0.11 0.12 0.11 0.10 0.12 0.14 0.14 0.12 0.07
0.02 0.04 0.05 0.06 0.07 0.06 0.05 0.04 0.03 0.03 0.02 0.01 0.02 0.01 0.02 0.02 0.01 0.02 0.02 0.02 0.02 0.02 0.02 0.02 0.03 0.04 0.04 0.05 0.06 0.06 0.08 0.12 0.13 0.16 0.18 0.15 0.14 0.13 0.17 0.16 0.11 0.08 0.07
0.02 0.09 0.13 0.11 0.08 0.06 0.06 0.04 0.03 0.02 0.02 0.02 0.02 0.01 0.01 0.02 0.02 0.02 0.02 0.03 0.02 0.02 0.02 0.02 0.03 0.04 0.04 0.05 0.06 0.07 0.08 0.14 0.15 0.18 0.20 0.17 0.16 0.14 0.14 0.10 0.07 0.07 0.07
0.01 0.07 0.17 0.17 0.10 0.06 0.04 0.04 0.03 0.02 0.01 0.01 0.01 0.01 0.02 0.02 0.02 0.03 0.03 0.03 0.02 0.02 0.02 0.03 0.02 0.03 0.04 0.05 0.06 0.08 0.13 0.19 0.21 0.23 0.22 0.21 0.18 0.14 0.11 0.08 0.06 0.06 0.07
0.00 0.02 0.07 0.11 0.07 0.04 0.04 0.04 0.03 0.02 0.01 0.01 0.01 0.01 0.02 0.02 0.01 0.02 0.03 0.02 0.02 0.03 0.03 0.03 0.03 0.03 0.04 0.05 0.07 0.10 0.20 0.25 0.23 0.22 0.23 0.23 0.19 0.13 0.09 0.08 0.05 0.05 0.06
0.01 0.01 0.02 0.04 0.04 0.02 0.02 0.03 0.02 0.01 0.01 0.01 0.02 0.02 0.02 0.02 0.02 0.02 0.02 0.02 0.02 0.03 0.04 0.04 0.03 0.04 0.05 0.05 0.06 0.08 0.13 0.17 0.17 0.16 0.18 0.19 0.15 0.11 0.09 0.08 0.07 0.05 0.05
0.00 0.01 0.01 0.02 0.02 0.02 0.02 0.02 0.01 0.01 0.01 0.01 0.02 0.02 0.02 0.02 0.02 0.02 0.02 0.01 0.02 0.03 0.04 0.04 0.03 0.04 0.06 0.06 0.07 0.10 0.15 0.18 0.16 0.15 0.14 0.12 0.11 0.11 0.10 0.08 0.08 0.06 0.04
0.00 0.00 0.00 0.02 0.01 0.01 0.01 0.01 0.01 0.01 0.01 0.02 0.02 0.02 0.01 0.02 0.02 0.01 0.01 0.02 0.02 0.03 0.05 0.05 0.05 0.07 0.07 0.08 0.10 0.14 0.21 0.22 0.17 0.19 0.13 0.11 0.08 0.09 0.09 0.08 0.07 0.05 0.05
0.01 0.01 0.01 0.01 0.02 0.02 0.02 0.02 0.01 0.01 0.01 0.02 0.03 0.03 0.02 0.03 0.02 0.01 0.01 0.02 0.03 0.03 0.05 0.06 0.08 0.13 0.16 0.18 0.22 0.24 0.27 0.28 0.20 0.13 0.12 0.11 0.08 0.08 0.07 0.06 0.05 0.05 0.05
0.01 0.01 0.01 0.02 0.02 0.02 0.03 0.02 0.02 0.01 0.01 0.02 0.03 0.03 0.03 0.05 0.04 0.03 0.02 0.02 0.02 0.03 0.05 0.07 0.08 0.15 0.25 0.30 0.32 0.28 0.26 0.25 0.22 0.15 0.12 0.10 0.10 0.09 0.07 0.06 0.04 0.04 0.04
0.02 0.01 0.01 0.02 0.02 0.02 0.02 0.03 0.04 0.03 0.04 0.06 0.06 0.05 0.05 0.05 0.05 0.04 0.02 0.02 0.02 0.02 0.04 0.07 0.09 0.15 0.22 0.23 0.23 0.20 0.17 0.19 0.21 0.14 0.12 0.11 0.09 0.07 0.06 0.05 0.04 0.03 0.04
0.01 0.00 0.00 0.01 0.02 0.02 0.03 0.04 0.04 0.03 0.05 0.07 0.07 0.06 0.05 0.06 0.06 0.05 0.06 0.07 0.07 0.06 0.07 0.09 0.13 0.17 0.18 0.15 0.13 0.13 0.11 0.17 0.23 0.14 0.12 0.10 0.08 0.07 0.05 0.04 0.04 0.03 0.04
0.00 0.00 0.00 0.00 0.02 0.02 0.03 0.03 0.08 0.04 0.03 0.05 0.06 0.05 0.07 0.09 0.08 0.07 0.09 0.10 0.10 0.10 0.11 0.11 0.11 0.14 0.16 0.15 0.12 0.11 0.11 0.16 0.18 0.15 0.12 0.11 0.08 0.07 0.06 0.04 0.04 0.04 0.04
0.00 0.01 0.01 0.01 0.01 0.02 0.03 0.04 0.05 0.03 0.02 0.03 0.04 0.05 0.08 0.07 0.08 0.09 0.09 0.09 0.09 0.09 0.09 0.11 0.09 0.10 0.11 0.09 0.09 0.09 0.10 0.12 0.14 0.14 0.14 0.12 0.09 0.06 0.04 0.04 0.04 0.03 0.04
0.00 0.01 0.01 0.00 0.01 0.01 0.03 0.04 0.04 0.03 0.03 0.02 0.02 0.03 0.04 0.05 0.07 0.08 0.08 0.09 0.08 0.09 0.08 0.11 0.12 0.12 0.11 0.08 0.07 0.07 0.10 0.11 0.12 0.12 0.14 0.14 0.10 0.07 0.06 0.05 0.05 0.05 0.04
0.00 0.00 0.01 0.01 0.01 0.01 0.01 0.02 0.02 0.03 0.03 0.02 0.03 0.03 0.04 0.04 0.06 0.07 0.07 0.07 0.08 0.07 0.08 0.08 0.11 0.10 0.13 0.10 0.07 0.08 0.10 0.11 0.11 0.13 0.15 0.13 0.11 0.08 0.07 0.06 0.05 0.06 0.06
0.01 0.00 0.00 0.00 0.00 0.01 0.01 0.01 0.01 0.02 0.03 0.03 0.04 0.04 0.03 0.04 0.05 0.06 0.06 0.07 0.07 0.07 0.08 0.10 0.11 0.12 0.10 0.08 0.07 0.07 0.07 0.09 0.11 0.16 0.17 0.16 0.13 0.10 0.09 0.08 0.06 0.07 0.08
0.00 0.00 0.00 0.00 0.01 0.02 0.02 0.01 0.02 0.03 0.03 0.03 0.03 0.03 0.02 0.03 0.03 0.04 0.06 0.07 0.07 0.11 0.11 0.10 0.11 0.13 0.13 0.10 0.07 0.06 0.05 0.07 0.13 0.15 0.18 0.18 0.12 0.11 0.10 0.10 0.11 0.13 0.12
0.00 0.00 0.00 0.01 0.02 0.03 0.02 0.02 0.04 0.04 0.04 0.04 0.05 0.04 0.03 0.03 0.03 0.04 0.04 0.05 0.06 0.08 0.08 0.11 0.10 0.12 0.13 0.12 0.10 0.09 0.07 0.08 0.11 0.12 0.19 0.26 0.22 0.16 0.12 0.11 0.12 0.14 0.16
0.00 0.00 0.00 0.01 0.01 0.03 0.03 0.04 0.05 0.05 0.04 0.04 0.04 0.04 0.03 0.04 0.03 0.04 0.05 0.07 0.07 0.07 0.07 0.08 0.08 0.10 0.13 0.15 0.14 0.13 0.10 0.09 0.09 0.10 0.16 0.22 0.23 0.20 0.14 0.12 0.14 0.14 0.17
0.00 0.00 0.00 0.01 0.01 0.02 0.03 0.04 0.04 0.05 0.05 0.05 0.05 0.05 0.04 0.05 0.04 0.04 0.05 0.07 0.06 0.07 0.07 0.06 0.07 0.09 0.14 0.17 0.17 0.15 0.15 0.16 0.15 0.12 0.13 0.14 0.16 0.18 0.17 0.15 0.14 0.15 0.15
0.00 0.01 0.01 0.01 0.02 0.02 0.02 0.03 0.04 0.06 0.06 0.06 0.07 0.07 0.06 0.08 0.09 0.08 0.08 0.08 0.06 0.05 0.07 0.07 0.06 0.08 0.12 0.16 0.17 0.14 0.12 0.15 0.17 0.17 0.15 0.16 0.17 0.20 0.20 0.17 0.14 0.13 0.14
0.00 0.01 0.01 0.02 0.03 0.02 0.02 0.02 0.04 0.06 0.07 0.06 0.06 0.06 0.07 0.09 0.12 0.12 0.13 0.09 0.06 0.04 0.06 0.05 0.06 0.09 0.11 0.12 0.16 0.12 0.08 0.10 0.13 0.19 0.18 0.19 0.19 0.18 0.17 0.15 0.13 0.11 0.10
0.01 0.01 0.01 0.02 0.03 0.03 0.02 0.03 0.04 0.04 0.05 0.05 0.05 0.05 0.07 0.08 0.13 0.16 0.18 0.12 0.06 0.05 0.05 0.05 0.07 0.07 0.10 0.12 0.14 0.12 0.10 0.10 0.09 0.11 0.15 0.16 0.17 0.16 0.13 0.12 0.12 0.10 0.08
0.01 0.01 0.02 0.03 0.03 0.03 0.03 0.03 0.04 0.04 0.05 0.05 0.06 0.06 0.07 0.07 0.08 0.13 0.15 0.12 0.07 0.06 0.07 0.07 0.07 0.07 0.11 0.13 0.11 0.12 0.11 0.11 0.10 0.09 0.10 0.12 0.13 0.12 0.12 0.10 0.08 0.07 0.05
MSLP
1005.22 1005.32 1005.62 1006.09 1006.63 1007.14 1007.52 1007.71 1007.69 1007.51 1007.24 1006.97 1006.76 1006.66 1006.65 1006.71 1006.79 1006.84 1006.85 1006.80 1006.73 1006.68 1006.66 1006.69 1006.78 1006.89 1007.01 1007.12 1007.23 1007.35 1007.53 1007.82 1008.25 1008.81 1009.49 1010.21 1010.91 1011.50 1011.94 1012.20 1012.30 1012.29 1012.24
1005.37 1005.59 1005.98 1006.50 1007.05 1007.53 1007.86 1007.99 1007.91 1007.68 1007.38 1007.09 1006.88 1006.77 1006.75 1006.79 1006.85 1006.88 1006.85 1006.78 1006.68 1006.60 1006.56 1006.57 1006.63 1006.72 1006.83 1006.94 1007.06 1007.23 1007.46 1007.82 1008.31 1008.93 1009.64 1010.38 1011.06 1011.64 1012.05 1012.29 1012.40 1012.41 1012.40
1005.44 1005.76 1006.23 1006.79 1007.35 1007.81 1008.11 1008.19 1008.09 1007.85 1007.54 1007.26 1007.04 1006.93 1006.89 1006.89 1006.90 1006.87 1006.79 1006.66 1006.52 1006.39 1006.31 1006.28 1006.29 1006.35 1006.44 1006.55 1006.70 1006.91 1007.23 1007.68 1008.27 1008.97 1009.74 1010.51 1011.20 1011.75 1012.14 1012.37 1012.48 1012.53 1012.57
1005.40 1005.80 1006.33 1006.91 1007.48 1007.93 1008.21 1008.28 1008.18 1007.96 1007.68 1007.42 1007.22 1007.09 1007.02 1006.98 1006.92 1006.83 1006.68 1006.50 1006.30 1006.12 1005.98 1005.90 1005.85 1005.85 1005.90 1006.00 1006.17 1006.44 1006.85 1007.42 1008.12 1008.93 1009.78 1010.60 1011.30 1011.85 1012.22 1012.45 1012.57 1012.65 1012.76
1005.26 1005.71 1006.27 1006.86 1007.42 1007.86 1008.14 1008.24 1008.17 1007.99 1007.76 1007.54 1007.36 1007.22 1007.12 1007.03 1006.92 1006.76 1006.56 1006.33 1006.09 1005.87 1005.68 1005.53 1005.42 1005.35 1005.34 1005.41 1005.58 1005.91 1006.41 1007.09 1007.92 1008.84 1009.78 1010.65 1011.39 1011.94 1012.31 1012.53 1012.67 1012.79 1012.95
1005.11 1005.57 1006.11 1006.69 1007.23 1007.65 1007.93 1008.05 1008.02 1007.90 1007.73 1007.56 1007.41 1007.28 1007.16 1007.03 1006.87 1006.68 1006.45 1006.21 1005.96 1005.72 1005.50 1005.29 1005.12 1004.97 1004.90 1004.91 1005.08 1005.44 1006.01 1006.78 1007.72 1008.76 1009.78 1010.72 1011.48 1012.04 1012.41 1012.63 1012.78 1012.93 1013.14
1005.03 1005.46 1005.97 1006.49 1006.98 1007.37 1007.63 1007.76 1007.77 1007.71 1007.60 1007.48 1007.35 1007.24 1007.11 1006.96 1006.79 1006.59 1006.38 1006.15 1005.93 1005.71 1005.48 1005.26 1005.03 1004.83 1004.68 1004.65 1004.79 1005.16 1005.77 1006.61 1007.63 1008.75 1009.84 1010.82 1011.61 1012.18 1012.54 1012.77 1012.92 1013.09 1013.34
1005.13 1005.50 1005.93 1006.37 1006.77 1007.09 1007.31 1007.43 1007.46 1007.44 1007.37 1007.29 1007.21 1007.10 1006.99 1006.85 1006.68 1006.51 1006.34 1006.17 1006.01 1005.84 1005.65 1005.44 1005.20 1004.96 1004.77 1004.70 1004.81 1005.16 1005.78 1006.66 1007.72 1008.87 1010.00 1011.00 1011.80 1012.37 1012.73 1012.95 1013.11 1013.29 1013.54
1005.46 1005.76 1006.09 1006.41 1006.70 1006.91 1007.06 1007.13 1007.15 1007.14 1007.11 1007.06 1007.00 1006.92 1006.82 1006.70 1006.56 1006.43 1006.32 1006.24 1006.16 1006.08 1005.97 1005.81 1005.60 1005.37 1005.17 1005.08 1005.17 1005.51 1006.11 1006.97 1008.02 1009.17 1010.28 1011.27 1012.05 1012.61 1012.96 1013.18 1013.34 1013.52 1013.77
1006.02 1006.24 1006.46 1006.65 1006.80 1006.89 1006.93 1006.93 1006.91 1006.89 1006.87 1006.85 1006.81 1006.75 1006.66 1006.56 1006.46 1006.38 1006.33 1006.33 1006.35 1006.37 1006.36 1006.29 1006.15 1005.97 1005.81 1005.74 1005.83 1006.15 1006.73 1007.54 1008.54 1009.62 1010.68 1011.61 1012.35 1012.88 1013.22 1013.44 1013.61 1013.79 1014.05
1006.74 1006.90 1007.01 1007.07 1007.07 1007.02 1006.93 1006.85 1006.78 1006.74 1006.72 1006.71 1006.69 1006.64 1006.57 1006.48 1006.41 1006.36 1006.37 1006.43 1006.53 1006.65 1006.74 1006.78 1006.76 1006.68 1006.60 1006.58 1006.70 1007.02 1007.56 1008.31 1009.21 1010.19 1011.15 1011.99 1012.67 1013.16 1013.49 1013.72 1013.91 1014.11 1014.38
1007.53 1007.64 1007.66 1007.60 1007.46 1007.27 1007.08 1006.91 1006.79 1006.72 1006.70 1006.70 1006.69 1006.66 1006.59 1006.52 1006.44 1006.41 1006.44 1006.54 1006.70 1006.89 1007.08 1007.23 1007.33 1007.38 1007.42 1007.50 1007.68 1008.02 1008.52 1009.19 1009.98 1010.82 1011.64 1012.37 1012.97 1013.42 1013.75 1014.00 1014.22 1014.47 1014.76
1008.28 1008.36 1008.31 1008.14 1007.89 1007.60 1007.31 1007.08 1006.92 1006.84 1006.82 1006.83 1006.84 1006.82 1006.77 1006.68 1006.60 1006.54 1006.56 1006.66 1006.83 1007.07 1007.33 1007.59 1007.82 1008.01 1008.19 1008.40 1008.66 1009.03 1009.51 1010.09 1010.76 1011.45 1012.12 1012.72 1013.23 1013.64 1013.97 1014.26 1014.54 1014.84 1015.17
1008.91 1008.97 1008.86 1008.62 1008.29 1007.93 1007.59 1007.32 1007.14 1007.07 1007.07 1007.11 1007.14 1007.13 1007.08 1006.98 1006.87 1006.78 1006.75 1006.81 1006.97 1007.21 1007.51 1007.85 1008.19 1008.52 1008.85 1009.19 1009.56 1009.97 1010.44 1010.95 1011.50 1012.04 1012.56 1013.02 1013.44 1013.81 1014.15 1014.49 1014.84 1015.21 1015.60
1009.38 1009.41 1009.27 1008.98 1008.60 1008.21 1007.85 1007.58 1007.43 1007.38 1007.41 1007.48 1007.53 1007.54 1007.49 1007.37 1007.23 1007.09 1007.01 1007.01 1007.12 1007.34 1007.65 1008.03 1008.46 1008.91 1009.38 1009.85 1010.32 1010.80 1011.26 1011.72 1012.16 1012.57 1012.95 1013.29 1013.62 1013.96 1014.31 1014.70 1015.12 1015.57 1016.02
1009.68 1009.68 1009.50 1009.19 1008.81 1008.42 1008.09 1007.85 1007.74 1007.73 1007.80 1007.90 1007.97 1007.99 1007.93 1007.80 1007.63 1007.45 1007.31 1007.25 1007.30 1007.48 1007.77 1008.16 1008.65 1009.19 1009.77 1010.36 1010.93 1011.47 1011.96 1012.39 1012.75 1013.05 1013.32 1013.56 1013.82 1014.11 1014.47 1014.90 1015.38 1015.89 1016.38
1009.89 1009.83 1009.62 1009.30 1008.93 1008.58 1008.30 1008.13 1008.06 1008.10 1008.20 1008.31 1008.39 1008.41 1008.34 1008.21 1008.02 1007.81 1007.63 1007.53 1007.52 1007.65 1007.91 1008.30 1008.80 1009.40 1010.06 1010.73 1011.39 1012.00 1012.52 1012.95 1013.27 1013.51 1013.69 1013.85 1014.05 1014.32 1014.67 1015.11 1015.62 1016.17 1016.70
1010.07 1009.94 1009.69 1009.37 1009.03 1008.74 1008.53 1008.41 1008.41 1008.47 1008.58 1008.69 1008.76 1008.76 1008.69 1008.54 1008.35 1008.14 1007.95 1007.82 1007.78 1007.86 1008.08 1008.44 1008.94 1009.56 1010.26 1010.99 1011.72 1012.39 1012.96 1013.40 1013.73 1013.93 1014.07 1014.20 1014.35 1014.58 1014.91 1015.34 1015.86 1016.40 1016.93
1010.27 1010.07 1009.79 1009.47 1009.18 1008.95 1008.81 1008.76 1008.79 1008.87 1008.97 1009.04 1009.07 1009.04 1008.94 1008.79 1008.61 1008.41 1008.23 1008.10 1008.05 1008.11 1008.29 1008.62 1009.09 1009.69 1010.39 1011.15 1011.92 1012.64 1013.26 1013.75 1014.11 1014.33 1014.47 1014.58 1014.70 1014.90 1015.20 1015.59 1016.07 1016.59 1017.09
1010.54 1010.28 1009.97 1009.67 1009.42 1009.26 1009.18 1009.18 1009.24 1009.31 1009.37 1009.39 1009.36 1009.27 1009.14 1008.98 1008.81 1008.65 1008.50 1008.40 1008.36 1008.40 1008.55 1008.82 1009.23 1009.79 1010.46 1011.21 1011.99 1012.75 1013.43 1013.98 1014.40 1014.67 1014.84 1014.96 1015.08 1015.24 1015.49 1015.84 1016.25 1016.71 1017.17
1010.88 1010.58 1010.26 1009.98 1009.78 1009.68 1009.66 1009.70 1009.76 1009.81 1009.82 1009.76 1009.65 1009.50 1009.33 1009.16 1009.01 1008.88 1008.78 1008.72 1008.69 1008.73 1008.84 1009.05 1009.39 1009.86 1010.47 1011.18 1011.95 1012.73 1013.45 1014.08 1014.57 1014.92 1015.14 1015.30 1015.42 1015.56 1015.76 1016.04 1016.38 1016.76 1017.16
1011.26 1010.94 1010.64 1010.39 1010.24 1010.19 1010.22 1010.29 1010.35 1010.37 1010.31 1010.18 1009.99 1009.78 1009.57 1009.38 1009.24 1009.15 1009.10 1009.07 1009.07 1009.10 1009.17 1009.31 1009.56 1009.93 1010.44 1011.08 1011.81 1012.58 1013.33 1014.02 1014.58 1015.02 1015.32 1015.53 1015.67 1015.80 1015.96 1016.16 1016.42 1016.73 1017.06
1011.63 1011.34 1011.06 1010.86 1010.76 1010.75 1010.82 1010.91 1010.96 1010.95 1010.84 1010.65 1010.40 1010.13 1009.88 1009.69 1009.56 1009.50 1009.48 1009.49 1009.50 1009.51 1009.54 1009.60 1009.74 1010.00 1010.39 1010.93 1011.59 1012.32 1013.08 1013.81 1014.44 1014.96 1015.34 1015.60 1015.78 1015.91 1016.03 1016.18 1016.37 1016.60 1016.88
1011.96 1011.72 1011.49 1011.32 1011.26 1011.29 1011.38 1011.48 1011.54 1011.50 1011.37 1011.14 1010.85 1010.54 1010.28 1010.08 1009.97 1009.92 1009.93 1009.96 1009.97 1009.96 1009.93 1009.92 1009.95 1010.08 1010.35 1010.77 1011.33 1012.00 1012.74 1013.48 1014.16 1014.73 1015.19 1015.51 1015.73 1015.88 1015.99 1016.09 1016.23 1016.41 1016.64
1012.23 1012.05 1011.86 1011.73 1011.69 1011.74 1011.84 1011.95 1012.01 1011.97 1011.83 1011.59 1011.29 1010.99 1010.72 1010.53 1010.42 1010.40 1010.42 1010.46 1010.46 1010.42 1010.35 1010.25 1010.18 1010.20 1010.34 1010.63 1011.08 1011.67 1012.36 1013.08 1013.77 1014.39 1014.90 1015.28 1015.54 1015.71 1015.83 1015.92 1016.03 1016.17 1016.38
1012.44 1012.32 1012.18 1012.07 1012.03 1012.08 1012.17 1012.28 1012.34 1012.32 1012.19 1011.97 1011.69 1011.41 1011.16 1010.98 1010.89 1010.87 1010.90 1010.93 1010.92 1010.86 1010.75 1010.59 1010.45 1010.36 1010.39 1010.56 1010.90 1011.39 1012.00 1012.67 1013.34 1013.97 1014.51 1014.94 1015.25 1015.46 1015.60 1015.70 1015.80 1015.93 1016.12
Thickness
5810 5805 5799 5795 5792 5789 5787 5784 5782 5780 5779 5777 5776 5775 5774 5773 5773 5772 5772 5772 5772 5772 5772 5772 5772 5772 5772 5771 5771 5771 5770 5769 5769 5768 5767 5767 5766 5764 5763 5762 5761 5760 5758
5812 5804 5798 5794 5791 5788 5785 5783 5780 5779 5777 5775 5774 5773 5772 5771 5771 5771 5770 5770 5770 5770 5771 5771 5771 5771 5771 5771 5770 5770 5769 5768 5768 5767 5766 5766 5765 5763 5761 5760 5759 5758 5756
5812 5804 5797 5793 5790 5786 5784 5781 5779 5777 5775 5774 5773 5771 5770 5769 5769 5769 5769 5769 5769 5769 5769 5769 5769 5770 5770 5769 5769 5768 5768 5768 5767 5767 5766 5765 5763 5761 5759 5758 5757 5756 5754
5812 5803 5797 5791 5788 5785 5782 5779 5777 5775 5774 5772 5771 5769 5768 5768 5767 5767 5767 5767 5767 5767 5767 5767 5768 5768 5768 5768 5768 5767 5767 5767 5766 5766 5765 5764 5762 5760 5758 5756 5755 5754 5753
5811 5802 5794 5789 5786 5783 5781 5778 5776 5774 5772 5771 5769 5768 5767 5766 5766 5765 5766 5766 5765 5765 5765 5765 5766 5766 5767 5766 5766 5766 5766 5767 5766 5765 5764 5763 5761 5759 5757 5755 5754 5753 5751
5809 5801 5793 5789 5785 5782 5779 5777 5774 5772 5771 5769 5768 5767 5766 5765 5765 5764 5764 5764 5764 5764 5763 5764 5764 5764 5764 5764 5764 5765 5764 5765 5765 5765 5763 5761 5759 5757 5755 5753 5752 5751 5750
5809 5800 5793 5788 5785 5782 5778 5775 5773 5771 5769 5768 5767 5766 5765 5764 5763 5763 5762 5762 5762 5762 5762 5762 5762 5762 5763 5763 5763 5763 5763 5764 5764 5764 5762 5760 5758 5756 5754 5752 5751 5750 5748
5809 5800 5792 5787 5784 5781 5778 5775 5772 5770 5769 5767 5766 5765 5764 5763 5762 5761 5761 5761 5761 5761 5760 5760 5760 5761 5762 5762 5762 5761 5761 5761 5762 5761 5760 5759 5757 5755 5753 5751 5750 5748 5747
5810 5801 5793 5787 5783 5780 5777 5774 5772 5770 5769 5767 5766 5765 5764 5763 5762 5761 5760 5759 5759 5759 5758 5759 5759 5759 5760 5760 5760 5760 5760 5759 5759 5757 5758 5756 5755 5754 5752 5750 5748 5747 5745
5810 5803 5796 5790 5786 5781 5777 5774 5772 5770 5769 5768 5766 5765 5763 5763 5762 5761 5760 5759 5758 5757 5757 5757 5757 5757 5758 5758 5759 5759 5759 5758 5757 5757 5756 5754 5754 5752 5750 5749 5747 5746 5744
5806 5802 5798 5793 5788 5784 5780 5776 5773 5770 5768 5767 5766 5764 5763 5762 5762 5762 5760 5759 5758 5757 5756 5756 5756 5756 5756 5756 5757 5757 5757 5757 5757 5755 5755 5753 5752 5751 5749 5748 5746 5745 5744
5799 5799 5798 5794 5790 5786 5783 5776 5774 5772 5769 5767 5766 5764 5763 5763 5762 5762 5760 5758 5757 5757 5755 5755 5754 5754 5754 5755 5756 5755 5755 5756 5755 5755 5753 5752 5751 5749 5748 5746 5745 5744 5743
5800 5798 5797 5794 5790 5786 5782 5777 5775 5773 5770 5768 5766 5764 5763 5762 5760 5760 5758 5756 5756 5755 5754 5753 5753 5753 5753 5754 5755 5754 5754 5754 5753 5753 5752 5751 5749 5748 5746 5745 5744 5743 5742
5799 5796 5795 5793 5788 5784 5781 5778 5775 5773 5770 5768 5765 5764 5761 5759 5759 5758 5756 5755 5754 5755 5754 5753 5751 5752 5752 5752 5753 5753 5752 5752 5752 5750 5749 5749 5748 5746 5745 5744 5742 5741 5740
5798 5795 5793 5790 5785 5782 5779 5776 5774 5772 5770 5767 5764 5761 5759 5758 5756 5756 5755 5754 5754 5754 5753 5751 5751 5750 5750 5751 5750 5750 5749 5750 5749 5748 5747 5746 5746 5745 5743 5742 5741 5740 5739
5797 5794 5792 5788 5783 5780 5776 5773 5772 5771 5769 5766 5763 5761 5758 5757 5755 5754 5753 5753 5752 5751 5751 5750 5748 5748 5748 5748 5748 5748 5748 5747 5746 5746 5745 5745 5744 5743 5742 5741 5740 5738 5737
5796 5793 5789 5786 5782 5778 5774 5772 5771 5769 5767 5765 5762 5760 5757 5756 5754 5753 5752 5751 5750 5749 5749 5748 5747 5747 5745 5746 5746 5746 5745 5745 5744 5744 5744 5743 5743 5742 5741 5740 5738 5737 5736
5795 5790 5787 5785 5779 5775 5772 5770 5768 5767 5765 5763 5761 5758 5756 5754 5753 5752 5751 5750 5749 5747 5746 5745 5744 5743 5743 5743 5743 5744 5744 5743 5742 5742 5742 5742 5742 5740 5739 5738 5737 5736 5735
5793 5788 5783 5781 5776 5773 5770 5768 5765 5764 5762 5761 5759 5756 5754 5753 5751 5750 5749 5748 5747 5745 5744 5744 5743 5741 5740 5740 5741 5742 5742 5742 5742 5742 5741 5741 5741 5739 5738 5737 5736 5735 5734
5790 5785 5781 5777 5773 5770 5768 5765 5762 5760 5759 5757 5755 5753 5751 5750 5749 5748 5747 5747 5746 5744 5743 5741 5740 5740 5739 5739 5740 5739 5738 5740 5741 5740 5739 5739 5739 5739 5738 5737 5735 5734 5733
5786 5781 5777 5773 5769 5766 5763 5759 5756 5754 5754 5753 5752 5750 5748 5747 5746 5746 5745 5745 5744 5742 5741 5740 5739 5737 5737 5738 5735 5733 5735 5738 5738 5738 5738 5737 5737 5738 5738 5737 5736 5734 5732
5782 5778 5773 5769 5766 5763 5760 5759 5756 5754 5752 5751 5749 5747 5746 5744 5744 5744 5742 5742 5741 5740 5739 5739 5737 5735 5735 5737 5733 5728 5725 5727 5731 5734 5735 5735 5735 5736 5737 5736 5735 5734 5732
5779 5775 5771 5766 5763 5760 5758 5756 5754 5751 5748 5746 5744 5743 5743 5742 5741 5741 5740 5739 5739 5738 5737 5737 5736 5734 5731 5734 5735 5730 5722 5718 5721 5726 5731 5732 5732 5732 5733 5734 5734 5733 5731
5777 5774 5769 5764 5760 5758 5755 5752 5747 5743 5739 5740 5740 5740 5740 5740 5739 5738 5737 5736 5735 5736 5735 5735 5735 5734 5732 5729 5732 5733 5731 5727 5720 5717 5723 5728 5730 5730 5730 5732 5732 5731 5729
5777 5772 5767 5762 5757 5755 5752 5749 5744 5741 5739 5738 5738 5736 5736 5736 5736 5735 5733 5733 5732 5732 5733 5732 5732 5731 5730 5728 5728 5729 5728 5728 5727 5720 5716 5720 5724 5727 5730 5730 5729 5729 5728
5775 5770 5764 5758 5754 5752 5749 5746 5742 5738 5735 5733 5732 5731 5731 5731 5731 5731 5731 5730 5730 5730 5729 5729 5729 5728 5728 5727 5727 5727 5725 5723 5722 5721 5717 5717 5718 5722 5726 5727 5728 5727 5727